{"data":{"norad_id":63110,"epoch":"2026-05-25T00:58:51.631104Z","epoch_age_seconds":74810,"freshness":"FRESH","line1":"1 63110U 25039G   26145.04087536  .00227971  00000+0  17233-2 0  9996","line2":"2 63110  43.0005 136.6146 0002092 231.5396 128.5284 15.70957674 71621","mean_motion":15.70957674,"eccentricity":0.0002092,"inclination_deg":43.0005,"raan_deg":136.6146,"arg_perigee_deg":231.5396,"mean_anomaly_deg":128.5284,"bstar":0.0017233,"rev_number":7162,"period_min":91.66383180353,"perigee_km":354.74993357766,"apogee_km":357.56756291873,"semimajor_km":6734.2957482482,"source":"CELESTRAK","updated_at":"2026-05-25T13:38:19.883242Z"}}